Погода в Туре

Россия / Красноярский край     64°16′20″N   100°12′23″E
темп.,
°C
ветер,
м/с
пор.,
м/с
влажн.,
%
обл.,
%
осадки,
мм/ч
давл.,
гПа
погр.,
м
17 апреля, сб
сб1701:00−25зюз229668 0.0 100012
04:00−27зюз229782 0.0 100212
07:00−22зюз238972 0.0 1004152
10:00−17з357418 0.0 1005566
13:00−14зсз7872100 0.0 1006929
16:00−13зсз7870100 0.0 10091115
19:00−15зсз61078100 0.1 1012405
22:00−19з368842 0.0 101484
18 апреля, вс
вс1801:00−27юз229833 0.0 10179
04:00−28юз2210051 0.0 10189
07:00−20ююз119355 0.0 101873
10:00−13юв2276100 0.0 1016412
13:00−7ю3473100 0.1 10151012
16:00−5ююв3666100 0.1 10131136
19:00−6юв5981100 0.1 1013217
22:00−9в3396100 0.1 101344
19 апреля, пн
пн1901:00−10всв3296100 0.4 101235
04:00−11всв3595100 0.3 1011163
07:00−8в3993100 1.1 1009497
10:00−6вюв7987100 0.6 1008774
13:00−3вюв6881100 0.9 10061011
16:00−3вюв6785100 0.4 1006692
19:00−3всв4896100 1.3 1004481
22:00−3юв61286100 0.9 1005551
20 апреля, вт
вт2001:00−8в4792100 0.9 1006118
04:00−9всв3490100 0.0 100850
07:00−8в41184100 0.0 1010639
10:00−6в7106997 0.0 1010870
13:00−5в7866100 0.0 10111037
16:00−4в7969100 0.0 10131165
19:00−6всв5980100 0.0 1015208
22:00−11ссв3489100 0.0 101849
21 апреля, ср
ср2101:00−14ссв339383 0.0 102023
04:00−18с3398100 0.0 102322
07:00−13с349286 0.0 1024120
10:00−7ссв3384100 0.0 1025452
13:00−5ссв2376100 0.1 1026739
16:00−4с3276100 0.1 1027623
19:00−6ссз118353 0.1 102910
22:00−13з119048 0.0 10319